Left ArrowRight Arrow

46.92218, -95.05863

Hourly Observations for June 23, 2024

Temp ( °F °C ) Dew Point ( °F °C ) Humidity (%) Winds ( mph kmh ) Pressure ( in mb ) Visibility ( mi km ) Precip ( " mm )
12:00 am 00:00 Cloudy 63 17.2 62 16.7 97 97 Calm 29.84 1011 10 16 0.00 0.00
12:21 am 00:21 Cloudy 62 16.7 60 15.6 93 93 SSE 7 11 29.84 1011 10 16 0.00 0.00
12:30 am 00:30 Cloudy with Light Rain 62 16.7 60 15.6 93 93 SSE 8 13 29.83 1010 10 16 0.01 0.13
12:53 am 00:53 Cloudy 62 16.7 60 15.6 93 93 SE 7 11 29.85 1011 10 16 0.01 0.13
1:53 am 01:53 Cloudy with Light Rain 61 16.1 57 13.9 87 87 SE 8 13 29.84 1011 9 14 0.01 0.13
2:20 am 02:20 Mostly Cloudy 60 15.6 58 14.4 93 93 SSE 5 7 29.82 1010 10 16 0.01 0.13
2:40 am 02:40 Cloudy 60 15.6 58 14.4 93 93 SE 3 6 29.82 1010 10 16 0.01 0.13
2:53 am 02:53 Cloudy 60 15.6 58 14.4 93 93 Calm 29.84 1011 10 16 0.01 0.13
3:00 am 03:00 Cloudy 61 16.1 59 15 93 93 S 3 6 29.82 1010 10 16 0.00 0.00
3:53 am 03:53 Cloudy 61 16.1 60 15.6 97 97 S 3 6 29.83 1010 10 16 0.00 0.00
4:42 am 04:42 Cloudy 62 16.7 61 16.1 96 96 SW 5 7 29.81 1010 10 16 0.00 0.00
4:53 am 04:53 Cloudy with Mist and Fog 63 17.2 62 16.7 97 97 WSW 7 11 29.83 1010 6 10 0.00 0.00
5:40 am 05:40 Cloudy 63 17.2 62 16.7 97 97 WNW 8 13 29.81 1010 9 14 0.00 0.00
5:53 am 05:53 Cloudy 63 17.2 62 16.7 97 97 W 6 9 29.84 1010 10 16 0.00 0.00
6:44 am 06:44 Partly Cloudy 62 16.7 61 16.1 96 96 W 6 9 29.82 1010 7 11 0.00 0.00
6:53 am 06:53 Partly Cloudy 62 16.7 61 16.1 96 96 W 5 7 29.84 1011 7 11 0.00 0.00
7:53 am 07:53 Sunny 66 18.9 61 16.1 84 84 WNW 8 13 29.84 1011 10 16 0.00 0.00
8:53 am 08:53 Sunny 70 21.1 60 15.6 71 71 NW 9 15 29.84 1011 10 16 0.00 0.00
9:53 am 09:53 Sunny 73 22.8 60 15.6 64 64 WNW 10 17 29.84 1011 10 16 0.00 0.00
10:53 am 10:53 Mostly Sunny 74 23.3 60 15.6 62 62 NW 10 17 29.85 1011 10 16 0.00 0.00
11:53 am 11:53 Partly Cloudy 74 23.3 59 15 60 60 NW 14 22 29.85 1011 10 16 0.00 0.00
12:53 pm 12:53 Partly Cloudy 76 24.4 55 12.8 48 48 NW 17 28 29.85 1011 10 16 0.00 0.00
1:53 pm 13:53 Partly Cloudy 78 25.6 55 12.8 45 45 NW 13 20 29.85 1011 10 16 0.00 0.00
2:53 pm 14:53 Mostly Sunny 79 26.1 55 12.8 44 44 NNW 12 19 29.84 1010 10 16 0.00 0.00
3:53 pm 15:53 Partly Cloudy 78 25.6 56 13.3 47 47 WNW 13 20 29.85 1011 10 16 0.00 0.00
4:53 pm 16:53 Sunny 78 25.6 54 12.2 43 43 WNW 13 20 29.85 1011 10 16 0.00 0.00
5:53 pm 17:53 Sunny 76 24.4 54 12.2 47 47 NW 10 17 29.86 1011 10 16 0.00 0.00
6:53 pm 18:53 Mostly Sunny 76 24.4 54 12.2 47 47 NW 8 13 29.86 1011 10 16 0.00 0.00
7:53 pm 19:53 Sunny 74 23.3 55 12.8 52 52 NW 6 9 29.86 1011 10 16 0.00 0.00
8:53 pm 20:53 Sunny 70 21.1 57 13.9 63 63 NNW 5 7 29.85 1011 10 16 0.00 0.00
9:53 pm 21:53 Clear 67 19.4 56 13.3 68 68 Calm 29.86 1011 10 16 0.00 0.00
10:53 pm 22:53 Clear 64 17.8 56 13.3 75 75 Calm 29.87 1012 10 16 0.00 0.00
11:53 pm 23:53 Clear 62 16.7 56 13.3 80 80 Calm 29.88 1012 10 16 0.00 0.00

Powered by Vaisala Xweather